Time,TemperatureF,DewpointF,PressureIn,WindDirection,WindDirectionDegrees,WindSpeedMPH,WindSpeedGustMPH,Humidity,HourlyPrecipIn,Conditions,Clouds,dailyrainin,SolarRadiationWatts/m^2,SoftwareType,DateUTC
2013-03-14 00:22:00,26.0,8.0,-100.00,NNW,332,3.0,8.0,46,0.00,,,0.00,0.000000,,2013-03-14 06:22:00,
2013-03-14 00:32:00,26.0,8.0,-100.00,NNW,332,3.0,8.0,46,0.00,,,0.00,0.000000,,2013-03-14 06:32:00,
2013-03-14 00:42:00,26.0,8.0,-100.00,NNW,332,3.0,8.0,46,0.00,,,0.00,0.000000,,2013-03-14 06:42:00,
2013-03-14 00:52:00,26.0,8.0,-100.00,NNW,332,3.0,8.0,46,0.00,,,0.00,0.000000,,2013-03-14 06:52:00,
2013-03-14 01:22:00,24.0,7.0,-100.00,WNW,299,0.0,7.0,48,0.00,,,-99.99,0.000000,,2013-03-14 07:22:00,
2013-03-14 01:32:00,24.0,7.0,-100.00,WNW,299,0.0,7.0,48,0.00,,,-99.99,0.000000,,2013-03-14 07:32:00,
2013-03-14 01:42:00,24.0,7.0,-100.00,WNW,299,0.0,7.0,48,0.00,,,-99.99,0.000000,,2013-03-14 07:42:00,
2013-03-14 01:52:00,24.0,7.0,-100.00,WNW,299,0.0,7.0,48,0.00,,,-99.99,0.000000,,2013-03-14 07:52:00,
2013-03-14 02:22:00,25.0,8.0,-100.00,ESE,103,2.0,6.0,47,0.00,,,0.00,0.000000,,2013-03-14 08:22:00,
2013-03-14 02:32:00,25.0,8.0,-100.00,ESE,103,2.0,6.0,47,0.00,,,0.00,0.000000,,2013-03-14 08:32:00,
2013-03-14 02:41:00,25.0,8.0,-100.00,ESE,103,2.0,6.0,47,0.00,,,0.00,0.000000,,2013-03-14 08:41:00,
2013-03-14 02:51:00,25.0,8.0,-100.00,ESE,103,2.0,6.0,47,0.00,,,0.00,0.000000,,2013-03-14 08:51:00,
2013-03-14 03:22:00,25.0,9.0,-100.00,WSW,258,0.0,6.0,49,0.00,,,0.00,0.000000,,2013-03-14 09:22:00,
2013-03-14 03:32:00,25.0,9.0,-100.00,WSW,258,0.0,6.0,49,0.00,,,0.00,0.000000,,2013-03-14 09:32:00,
2013-03-14 03:42:00,25.0,9.0,-100.00,WSW,258,0.0,6.0,49,0.00,,,0.00,0.000000,,2013-03-14 09:42:00,
2013-03-14 03:52:00,25.0,9.0,-100.00,WSW,258,0.0,6.0,49,0.00,,,0.00,0.000000,,2013-03-14 09:52:00,
2013-03-14 04:22:00,16.0,6.0,-100.00,NE,54,5.0,9.0,65,0.00,,,0.00,0.000000,,2013-03-14 10:22:00,
2013-03-14 04:32:00,16.0,6.0,-100.00,NE,54,5.0,9.0,65,0.00,,,0.00,0.000000,,2013-03-14 10:32:00,
2013-03-14 04:42:00,16.0,6.0,-100.00,NE,54,5.0,9.0,65,0.00,,,0.00,0.000000,,2013-03-14 10:42:00,
2013-03-14 04:52:00,16.0,6.0,-100.00,NE,54,5.0,9.0,65,0.00,,,0.00,0.000000,,2013-03-14 10:52:00,
2013-03-14 05:12:00,16.0,7.0,-100.00,NNE,33,3.0,7.0,66,0.00,,,0.00,0.000000,,2013-03-14 11:12:00,
2013-03-14 05:22:00,16.0,7.0,-100.00,NNE,33,3.0,7.0,66,0.00,,,0.00,0.000000,,2013-03-14 11:22:00,
2013-03-14 05:33:00,16.0,7.0,-100.00,NNE,33,3.0,7.0,66,0.00,,,0.00,0.000000,,2013-03-14 11:33:00,
2013-03-14 05:42:00,16.0,7.0,-100.00,NNE,33,3.0,7.0,66,0.00,,,0.00,0.000000,,2013-03-14 11:42:00,
2013-03-14 05:52:00,16.0,7.0,-100.00,NNE,33,3.0,7.0,66,0.00,,,0.00,0.000000,,2013-03-14 11:52:00,
2013-03-14 06:22:00,18.0,7.0,-100.00,NE,41,6.0,9.0,62,0.00,,,0.00,0.000000,,2013-03-14 12:22:00,
2013-03-14 06:33:00,18.0,7.0,-100.00,NE,41,6.0,9.0,62,0.00,,,0.00,0.000000,,2013-03-14 12:33:00,
2013-03-14 06:42:00,18.0,7.0,-100.00,NE,41,6.0,9.0,62,0.00,,,0.00,0.000000,,2013-03-14 12:42:00,
2013-03-14 06:52:00,18.0,7.0,-100.00,NE,41,6.0,9.0,62,0.00,,,0.00,0.000000,,2013-03-14 12:52:00,
2013-03-14 07:22:00,15.0,6.0,-100.00,NE,47,3.0,7.0,66,0.00,,,0.00,0.000000,,2013-03-14 13:22:00,
2013-03-14 07:32:00,15.0,6.0,-100.00,NE,47,3.0,7.0,66,0.00,,,0.00,0.000000,,2013-03-14 13:32:00,
2013-03-14 07:42:00,15.0,6.0,-100.00,NE,47,3.0,7.0,66,0.00,,,0.00,0.000000,,2013-03-14 13:42:00,
2013-03-14 07:52:00,15.0,6.0,-100.00,NE,47,3.0,7.0,66,0.00,,,0.00,0.000000,,2013-03-14 13:52:00,
2013-03-14 08:22:00,18.0,7.0,-100.00,East,101,2.0,5.0,62,0.00,,,0.00,10.000000,,2013-03-14 14:22:00,
2013-03-14 08:32:00,18.0,7.0,-100.00,East,101,2.0,5.0,62,0.00,,,0.00,10.000000,,2013-03-14 14:32:00,
2013-03-14 08:42:00,18.0,7.0,-100.00,East,101,2.0,5.0,62,0.00,,,0.00,10.000000,,2013-03-14 14:42:00,
2013-03-14 08:52:00,18.0,7.0,-100.00,East,101,2.0,5.0,62,0.00,,,0.00,10.000000,,2013-03-14 14:52:00,
2013-03-14 09:22:00,24.0,8.0,-100.00,ENE,69,5.0,7.0,49,0.00,,,0.00,212.000000,,2013-03-14 15:22:00,
2013-03-14 09:33:00,24.0,8.0,-100.00,ENE,69,5.0,7.0,49,0.00,,,0.00,212.000000,,2013-03-14 15:33:00,
2013-03-14 09:43:00,24.0,8.0,-100.00,ENE,69,5.0,7.0,49,0.00,,,0.00,212.000000,,2013-03-14 15:43:00,
2013-03-14 09:52:00,24.0,8.0,-100.00,ENE,69,5.0,7.0,49,0.00,,,0.00,212.000000,,2013-03-14 15:52:00,
2013-03-14 10:22:00,41.0,13.0,-100.00,WSW,252,2.0,9.0,31,0.00,,,0.00,475.000000,,2013-03-14 16:22:00,
2013-03-14 10:32:00,41.0,13.0,-100.00,WSW,252,2.0,9.0,31,0.00,,,0.00,475.000000,,2013-03-14 16:32:00,
2013-03-14 10:42:00,41.0,13.0,-100.00,WSW,252,2.0,9.0,31,0.00,,,0.00,475.000000,,2013-03-14 16:42:00,
2013-03-14 10:52:00,41.0,13.0,-100.00,WSW,252,2.0,9.0,31,0.00,,,0.00,475.000000,,2013-03-14 16:52:00,
2013-03-14 11:23:00,45.0,15.0,-100.00,SSE,156,2.0,4.0,29,0.00,,,0.00,695.000000,,2013-03-14 17:23:00,
2013-03-14 11:32:00,45.0,15.0,-100.00,SSE,156,2.0,4.0,29,0.00,,,0.00,695.000000,,2013-03-14 17:32:00,
2013-03-14 11:42:00,45.0,15.0,-100.00,SSE,156,2.0,4.0,29,0.00,,,0.00,695.000000,,2013-03-14 17:42:00,
2013-03-14 11:52:00,45.0,15.0,-100.00,SSE,156,2.0,4.0,29,0.00,,,0.00,695.000000,,2013-03-14 17:52:00,
2013-03-14 12:23:00,46.0,10.0,-100.00,WSW,257,6.0,9.0,23,0.00,,,0.00,863.000000,,2013-03-14 18:23:00,
2013-03-14 12:33:00,46.0,10.0,-100.00,WSW,257,6.0,9.0,23,0.00,,,0.00,863.000000,,2013-03-14 18:33:00,
2013-03-14 12:43:00,46.0,10.0,-100.00,WSW,257,6.0,9.0,23,0.00,,,0.00,863.000000,,2013-03-14 18:43:00,
2013-03-14 12:52:00,46.0,10.0,-100.00,WSW,257,6.0,9.0,23,0.00,,,0.00,863.000000,,2013-03-14 18:52:00,
2013-03-14 13:23:00,48.0,7.0,-100.00,WSW,257,8.0,11.0,18,0.00,,,0.00,970.000000,,2013-03-14 19:23:00,
2013-03-14 13:32:00,48.0,7.0,-100.00,WSW,257,8.0,11.0,18,0.00,,,0.00,970.000000,,2013-03-14 19:32:00,
2013-03-14 13:42:00,48.0,7.0,-100.00,WSW,257,8.0,11.0,18,0.00,,,0.00,970.000000,,2013-03-14 19:42:00,
2013-03-14 13:52:00,48.0,7.0,-100.00,WSW,257,8.0,11.0,18,0.00,,,0.00,970.000000,,2013-03-14 19:52:00,
2013-03-14 15:22:00,52.0,4.0,-100.00,West,261,8.0,14.0,14,-99.99,,,0.00,946.000000,,2013-03-14 21:22:00,
2013-03-14 15:32:00,52.0,4.0,-100.00,West,261,8.0,14.0,14,-99.99,,,0.00,946.000000,,2013-03-14 21:32:00,
2013-03-14 15:43:00,52.0,4.0,-100.00,West,261,8.0,14.0,14,-99.99,,,0.00,946.000000,,2013-03-14 21:43:00,
2013-03-14 15:52:00,52.0,4.0,-100.00,West,261,8.0,14.0,14,-99.99,,,0.00,946.000000,,2013-03-14 21:52:00,
2013-03-14 16:23:00,53.0,5.0,-100.00,WSW,245,9.0,16.0,14,0.00,,,0.00,822.000000,,2013-03-14 22:23:00,
2013-03-14 16:33:00,53.0,5.0,-100.00,WSW,245,9.0,16.0,14,0.00,,,0.00,822.000000,,2013-03-14 22:33:00,
2013-03-14 16:42:00,53.0,5.0,-100.00,WSW,245,9.0,16.0,14,0.00,,,0.00,822.000000,,2013-03-14 22:42:00,
2013-03-14 16:52:00,53.0,5.0,-100.00,WSW,245,9.0,16.0,14,0.00,,,0.00,822.000000,,2013-03-14 22:52:00,
2013-03-14 17:22:00,52.0,3.0,-100.00,WSW,246,10.0,17.0,13,0.00,,,0.00,621.000000,,2013-03-14 23:22:00,
2013-03-14 17:33:00,52.0,3.0,-100.00,WSW,246,10.0,17.0,13,0.00,,,0.00,621.000000,,2013-03-14 23:33:00,
2013-03-14 17:42:00,52.0,3.0,-100.00,WSW,246,10.0,17.0,13,0.00,,,0.00,621.000000,,2013-03-14 23:42:00,
2013-03-14 17:53:00,52.0,3.0,-100.00,WSW,246,10.0,17.0,13,0.00,,,0.00,621.000000,,2013-03-14 23:53:00,
2013-03-14 18:23:00,50.0,-1.0,-100.00,WNW,291,10.0,16.0,12,0.00,,,0.00,408.000000,,2013-03-15 00:23:00,
2013-03-14 18:32:00,50.0,-1.0,-100.00,WNW,291,10.0,16.0,12,0.00,,,0.00,408.000000,,2013-03-15 00:32:00,
2013-03-14 18:42:00,50.0,-1.0,-100.00,WNW,291,10.0,16.0,12,0.00,,,0.00,408.000000,,2013-03-15 00:42:00,
2013-03-14 18:52:00,50.0,-1.0,-100.00,WNW,291,10.0,16.0,12,0.00,,,0.00,408.000000,,2013-03-15 00:52:00,
2013-03-14 19:22:00,45.0,0.0,-100.00,WNW,287,8.0,18.0,15,0.00,,,0.00,142.000000,,2013-03-15 01:22:00,
2013-03-14 19:32:00,45.0,0.0,-100.00,WNW,287,8.0,18.0,15,0.00,,,0.00,142.000000,,2013-03-15 01:32:00,
2013-03-14 19:42:00,45.0,0.0,-100.00,WNW,287,8.0,18.0,15,0.00,,,0.00,142.000000,,2013-03-15 01:42:00,
2013-03-14 19:52:00,45.0,0.0,-100.00,WNW,287,8.0,18.0,15,0.00,,,0.00,142.000000,,2013-03-15 01:52:00,
2013-03-14 20:22:00,41.0,1.0,-100.00,West,280,6.0,11.0,18,0.00,,,0.00,4.000000,,2013-03-15 02:22:00,
2013-03-14 20:32:00,41.0,1.0,-100.00,West,280,6.0,11.0,18,0.00,,,0.00,4.000000,,2013-03-15 02:32:00,
2013-03-14 20:42:00,41.0,1.0,-100.00,West,280,6.0,11.0,18,0.00,,,0.00,4.000000,,2013-03-15 02:42:00,
2013-03-14 20:52:00,41.0,1.0,-100.00,West,280,6.0,11.0,18,0.00,,,0.00,4.000000,,2013-03-15 02:52:00,
2013-03-14 21:22:00,31.0,8.0,-100.00,NE,55,6.0,11.0,38,0.00,,,0.00,0.000000,,2013-03-15 03:22:00,
2013-03-14 21:33:00,31.0,8.0,-100.00,NE,55,6.0,11.0,38,0.00,,,0.00,0.000000,,2013-03-15 03:33:00,
2013-03-14 21:43:00,31.0,8.0,-100.00,NE,55,6.0,11.0,38,0.00,,,0.00,0.000000,,2013-03-15 03:43:00,
2013-03-14 21:52:00,31.0,8.0,-100.00,NE,55,6.0,11.0,38,0.00,,,0.00,0.000000,,2013-03-15 03:52:00,
2013-03-14 22:23:00,35.0,4.0,-100.00,WNW,300,5.0,7.0,26,0.00,,,0.00,0.000000,,2013-03-15 04:23:00,
2013-03-14 22:32:00,35.0,4.0,-100.00,WNW,300,5.0,7.0,26,0.00,,,0.00,0.000000,,2013-03-15 04:32:00,
2013-03-14 22:43:00,35.0,4.0,-100.00,WNW,300,5.0,7.0,26,0.00,,,0.00,0.000000,,2013-03-15 04:43:00,
2013-03-14 22:52:00,35.0,4.0,-100.00,WNW,300,5.0,7.0,26,0.00,,,0.00,0.000000,,2013-03-15 04:52:00,
2013-03-14 23:22:00,28.0,5.0,-100.00,ENE,73,7.0,11.0,37,0.00,,,0.00,0.000000,,2013-03-15 05:22:00,
2013-03-14 23:32:00,28.0,5.0,-100.00,ENE,73,7.0,11.0,37,0.00,,,0.00,0.000000,,2013-03-15 05:32:00,
2013-03-14 23:42:00,28.0,5.0,-100.00,ENE,73,7.0,11.0,37,0.00,,,0.00,0.000000,,2013-03-15 05:42:00,
2013-03-14 23:52:00,28.0,5.0,-100.00,ENE,73,7.0,11.0,37,0.00,,,0.00,0.000000,,2013-03-15 05:52:00,